Decorah, IA

4:32 AM CST on December 13, 2019 (GMT -0600)
Decorah Municipal

Weather History for KDEH - October, 2019

Change the Weather History Date:

Saturday, October 5, 2019

  Actual Average Record
Temperature  
Mean Temperature 50 °F -  
Max Temperature 55 °F 65 °F 86 °F (1963)
Min Temperature 46 °F 43 °F 23 °F (1952)
Degree Days  
Heating Degree Days 14    
Moisture  
Dew Point 49 °F    
Average Humidity 96    
Maximum Humidity 100    
Minimum Humidity 77    
Precipitation  
Precipitation 0.61 in - - ()
Sea Level Pressure  
Sea Level Pressure 29.95 in    
Wind  
Wind Speed 10 mph ()    
Max Wind Speed 20 mph    
Max Gust Speed 29 mph    
Visibility 7.9 miles    
Events Rain    
Averages and records for this station are not official NWS values.
T = Trace of Precipitation, MM = Missing Value Source: Averaged Metar Reports

Daily Weather History Graph

Daily Weather History Graph

Search for Another Location

Airport or City:

Astronomy

Oct. 05, 2019 Rise Set
Actual Time 7:08 AM CDT 6:41 PM CDT
Civil Twilight 6:40 AM CDT 7:09 PM CDT
Nautical Twilight 6:07 AM CDT 7:42 PM CDT
Astronomical Twilight 5:33 AM CDT 8:15 PM CDT
Moon 2:43 PM CDT (10/5) 11:55 PM CDT (10/5)
Length of Visible Light 12h 29m
Length of Day
11h 32m
Waxing Crescent, 50% of the Moon is Illuminated
Oct 5
Waxing Crescent
Oct 13
Full
Oct 21
Last Quarter
Oct 27
New
Nov 4
First Quarter

Hourly Weather History & Observations

Time (CDT) Temp. Windchill Dew Point Humidity Pressure Visibility Wind Dir Wind Speed Gust Speed Precip Events Conditions
12:15 AM 46.4 °F 41.9 °F 44.6 °F 93% 30.20 in 10.0 mi SE 9.2 mph 18.4 mph N/A   Partly Cloudy
12:35 AM 46.4 °F 42.4 °F 46.4 °F 100% 30.21 in 10.0 mi SE 8.1 mph - N/A   Mostly Cloudy
12:55 AM 48.2 °F - 46.4 °F 93% 30.21 in 10.0 mi SE 8.1 mph 15.0 mph N/A   Overcast
1:15 AM 48.2 °F - 46.4 °F 93% 30.20 in 10.0 mi SE 9.2 mph 18.4 mph N/A   Mostly Cloudy
1:35 AM 48.2 °F - 46.4 °F 93% 30.19 in 10.0 mi SE 9.2 mph 16.1 mph N/A   Overcast
1:55 AM 48.2 °F - 46.4 °F 93% 30.17 in 10.0 mi SE 12.7 mph 20.7 mph N/A   Overcast
2:15 AM 48.2 °F - 46.4 °F 93% 30.16 in 10.0 mi SE 15.0 mph 21.9 mph N/A   Overcast
2:35 AM 48.2 °F - 46.4 °F 93% 30.15 in 10.0 mi SE 11.5 mph 21.9 mph N/A   Overcast
2:55 AM 48.2 °F - 46.4 °F 93% 30.14 in 10.0 mi SE 12.7 mph 19.6 mph N/A   Overcast
3:15 AM 48.2 °F - 46.4 °F 93% 30.14 in 10.0 mi SE 10.4 mph 18.4 mph N/A   Overcast
3:35 AM 48.2 °F - 46.4 °F 93% 30.14 in 7.0 mi SE 8.1 mph 19.6 mph N/A   Overcast
3:55 AM 48.2 °F - 46.4 °F 93% 30.13 in 10.0 mi SE 10.4 mph 18.4 mph N/A   Overcast
4:15 AM 48.2 °F - 46.4 °F 93% 30.11 in 10.0 mi SE 10.4 mph 18.4 mph N/A   Overcast
4:35 AM 48.2 °F - 46.4 °F 93% 30.11 in 10.0 mi SE 10.4 mph 19.6 mph N/A   Overcast
4:55 AM 48.2 °F - 46.4 °F 93% 30.10 in 10.0 mi SE 9.2 mph 15.0 mph 0.01 in   Overcast
5:15 AM 46.4 °F 41.5 °F 46.4 °F 100% 30.09 in 10.0 mi SE 10.4 mph 17.3 mph N/A   Overcast
5:35 AM 46.4 °F 41.5 °F 46.4 °F 100% 30.07 in 9.0 mi SE 10.4 mph 17.3 mph N/A   Overcast
5:55 AM 46.4 °F 42.4 °F 46.4 °F 100% 30.13 in 3.0 mi SW 8.1 mph 16.1 mph 0.05 in Rain Light Rain
6:15 AM 46.4 °F 41.9 °F 46.4 °F 100% 30.09 in 4.0 mi SSE 9.2 mph 16.1 mph N/A Rain Light Rain
6:35 AM 46.4 °F 40.7 °F 46.4 °F 100% 30.03 in 4.0 mi SE 12.7 mph 23.0 mph N/A Rain Light Rain
6:55 AM 46.4 °F 40.7 °F 46.4 °F 100% 30.00 in 5.0 mi SE 12.7 mph 21.9 mph 0.14 in   Overcast
7:15 AM 46.4 °F 40.7 °F 46.4 °F 100% 30.00 in 10.0 mi SSE 12.7 mph 19.6 mph N/A   Overcast
7:35 AM 48.2 °F - 48.2 °F 100% 29.99 in 10.0 mi SSE 10.4 mph 23.0 mph N/A   Overcast
7:55 AM 48.2 °F - 48.2 °F 100% 30.00 in 10.0 mi SSE 9.2 mph 23.0 mph 0.01 in   Overcast
8:15 AM 48.2 °F - 48.2 °F 100% 29.98 in 8.0 mi SE 11.5 mph - N/A   Overcast
8:35 AM 48.2 °F - 48.2 °F 100% 29.98 in 10.0 mi SSE 11.5 mph 23.0 mph N/A   Overcast
8:55 AM 48.2 °F - 48.2 °F 100% 29.97 in 10.0 mi SSE 13.8 mph 23.0 mph N/A   Overcast
9:15 AM 48.2 °F - 48.2 °F 100% 29.95 in 10.0 mi SE 10.4 mph 21.9 mph N/A   Overcast
9:35 AM 50.0 °F - 48.2 °F 94% 29.95 in 10.0 mi SSE 12.7 mph 19.6 mph N/A   Overcast
9:55 AM 50.0 °F - 48.2 °F 94% 29.95 in 10.0 mi SSE 12.7 mph 20.7 mph N/A   Overcast
10:15 AM 48.2 °F - 48.2 °F 100% 29.95 in 3.0 mi SSE 10.4 mph 20.7 mph N/A Rain Light Rain
10:35 AM 48.2 °F - 48.2 °F 100% 29.96 in 1.8 mi SSE 11.5 mph - N/A Rain Rain
10:55 AM 48.2 °F - 48.2 °F 100% 29.93 in 3.0 mi SSE 12.7 mph 25.3 mph 0.25 in Rain Light Rain
11:15 AM 50.0 °F - 50.0 °F 100% 29.90 in 3.0 mi SSE 15.0 mph 24.2 mph N/A Rain Light Rain
11:35 AM 50.0 °F - 50.0 °F 100% 29.90 in 3.0 mi SSE 17.3 mph 27.6 mph N/A   Overcast
11:55 AM 50.0 °F - 50.0 °F 100% 29.86 in 4.0 mi SSE 15.0 mph 28.8 mph 0.09 in Rain Light Rain
12:15 PM 50.0 °F - 50.0 °F 100% 29.90 in 5.0 mi SSW 11.5 mph 21.9 mph N/A   Mostly Cloudy
12:35 PM 50.0 °F - 50.0 °F 100% 29.85 in 10.0 mi SSE 16.1 mph 28.8 mph N/A   Overcast
12:55 PM 50.0 °F - 50.0 °F 100% 29.85 in 7.0 mi SSE 10.4 mph 21.9 mph 0.03 in   Overcast
1:15 PM 51.8 °F - 51.8 °F 100% 29.82 in 5.0 mi SSE 17.3 mph 24.2 mph N/A   Mostly Cloudy
1:35 PM 51.8 °F - 51.8 °F 100% 29.81 in 10.0 mi SSE 19.6 mph 28.8 mph N/A   Mostly Cloudy
1:55 PM 51.8 °F - 51.8 °F 100% 29.81 in 10.0 mi South 13.8 mph 25.3 mph 0.03 in   Overcast
2:15 PM 51.8 °F - 51.8 °F 100% 29.80 in 1.8 mi South 12.7 mph 24.2 mph N/A   Overcast
2:55 PM 51.8 °F - 51.8 °F 100% 29.80 in 5.0 mi SSW 10.4 mph 20.7 mph N/A   Overcast
3:15 PM 51.8 °F - 51.8 °F 100% 29.79 in 2.5 mi South 12.7 mph 20.7 mph N/A   Overcast
3:35 PM 51.8 °F - 51.8 °F 100% 29.78 in 3.0 mi South 12.7 mph 23.0 mph N/A   Overcast
3:55 PM 53.6 °F - 53.6 °F 100% 29.78 in 2.5 mi South 11.5 mph 24.2 mph N/A   Overcast
4:15 PM 53.6 °F - 53.6 °F 100% 29.79 in 2.0 mi South 13.8 mph 24.2 mph N/A   Overcast
4:35 PM 53.6 °F - 53.6 °F 100% 29.79 in 3.0 mi SSW 12.7 mph 21.9 mph N/A   Overcast
4:55 PM 53.6 °F - 53.6 °F 100% 29.79 in 2.5 mi South 11.5 mph 20.7 mph N/A   Mostly Cloudy
5:15 PM 53.6 °F - 53.6 °F 100% 29.80 in 3.0 mi South 10.4 mph 19.6 mph N/A   Overcast
5:35 PM 53.6 °F - 53.6 °F 100% 29.80 in 10.0 mi South 8.1 mph 20.7 mph N/A   Overcast
5:55 PM 53.6 °F - 53.6 °F 100% 29.80 in 10.0 mi SSW 9.2 mph - N/A   Overcast
6:15 PM 55.4 °F - 55.4 °F 100% 29.80 in 10.0 mi South 10.4 mph - N/A   Overcast
6:35 PM 55.4 °F - 55.4 °F 100% 29.80 in 10.0 mi Variable 6.9 mph 13.8 mph N/A   Overcast
6:55 PM 55.4 °F - 55.4 °F 100% 29.80 in 10.0 mi SSW 9.2 mph 16.1 mph N/A   Overcast
7:15 PM 55.4 °F - 55.4 °F 100% 29.82 in 10.0 mi SW 9.2 mph - N/A   Overcast
7:35 PM 55.4 °F - 53.6 °F 94% 29.83 in 10.0 mi West 12.7 mph 20.7 mph N/A   Overcast
7:55 PM 55.4 °F - 51.8 °F 88% 29.84 in 10.0 mi Variable 6.9 mph 15.0 mph N/A   Overcast
8:15 PM 53.6 °F - 50.0 °F 88% 29.85 in 10.0 mi Variable 4.6 mph 11.5 mph N/A   Overcast
8:35 PM 53.6 °F - 48.2 °F 82% 29.86 in 10.0 mi West 8.1 mph 17.3 mph N/A   Overcast
8:55 PM 53.6 °F - 48.2 °F 82% 29.86 in 10.0 mi West 8.1 mph 19.6 mph N/A   Overcast
9:15 PM 53.6 °F - 46.4 °F 77% 29.87 in 10.0 mi West 8.1 mph 15.0 mph N/A   Overcast
9:35 PM 53.6 °F - 46.4 °F 77% 29.89 in 10.0 mi SW 8.1 mph - N/A   Mostly Cloudy
9:55 PM 51.8 °F - 46.4 °F 82% 29.90 in 10.0 mi SW 6.9 mph 13.8 mph N/A   Partly Cloudy
10:15 PM 51.8 °F - 46.4 °F 82% 29.89 in 10.0 mi West 8.1 mph - N/A   Clear
10:35 PM 50.0 °F - 46.4 °F 87% 29.88 in 10.0 mi Variable 5.8 mph - N/A   Clear
10:55 PM 50.0 °F - 46.4 °F 87% 29.89 in 10.0 mi Calm Calm - N/A   Clear
11:15 PM 48.2 °F - 46.4 °F 93% 29.89 in 10.0 mi Variable 4.6 mph 11.5 mph N/A   Clear
11:35 PM 50.0 °F - 46.4 °F 87% 29.90 in - Variable 6.9 mph - N/A   Unknown
11:55 PM 50.0 °F - 46.4 °F 87% 29.91 in 10.0 mi WSW 6.9 mph - N/A   Partly Cloudy